Home   Weather   Allentown   Past weeks

Flag for USA Past Weather in Allentown, Pennsylvania, USA — Yesterday and Last 2 Weeks

Now
30 °F

Clear.


Feels Like: 30 °F
Forecast: 30 / 42 °F
Wind: No wind

Location: Lehigh Valley International Airport

Current Time: Dec 6, 2016 at 3:25:21 am

Latest Report: Dec 6, 2016 at 2:51 am


Visibility: 10 mi

Pressure: 30.14 "Hg

Humidity: 85%

Dew Point: 26 °F

Location of AllentownLocation

Past Weather in Allentown — Graph

°F

Allentown Temperature Yesterday

Maximum temperature yesterday: 47 °F (at 1:51 pm)
Minimum temperature yesterday: 31 °F (at 11:51 pm)
Average temperature yesterday: 39 °F

High & Low Weather Summary for the Past Weeks

 TemperatureHumidityPressure
High56 °F (Nov 29, 9:51 pm)93% (Nov 25, 11:59 pm)30.35 "Hg (Nov 25, 11:59 pm)
Low24 °F (Nov 28, 6:51 am)30% (Nov 23, 2:51 pm)29.49 "Hg (Dec 1, 1:58 am)
Average43 °F65%30.05 "Hg
* Reported Nov 21 1:51 am — Dec 6 1:51 am, Allentown, Weather by CustomWeather, © 2016

Note: Actual official high and low records may vary slightly from our data, if they occured in-between our weather recording intervals... More about our weather records

Advertising

Allentown Weather History for the Previous 24 Hours

Scroll right to see more
 ConditionsComfort  
Time TempWeatherWind HumidityBarometerVisibility
1:51 am
Tue, Dec 6
30 °FClear.No wind85%30.13 "Hg10 mi
12:51 am31 °FClear.3 mph82%30.14 "Hg10 mi
11:51 pm
Mon, Dec 5
31 °FClear.3 mph82%30.13 "Hg10 mi
10:51 pm36 °FClear.3 mph73%30.11 "Hg10 mi
9:51 pm39 °FClear.5 mph65%30.11 "Hg10 mi
8:51 pm37 °FClear.3 mph70%30.11 "Hg10 mi
7:51 pm39 °FClear.6 mph67%30.09 "Hg10 mi
6:51 pm34 °FClear.5 mph76%30.07 "Hg10 mi
5:51 pm42 °FClear.3 mph60%30.04 "Hg10 mi
4:51 pm44 °FPassing clouds.6 mph63%30.03 "Hg10 mi
3:51 pm47 °FPartly sunny.6 mph59%30.02 "Hg10 mi
2:51 pm47 °FScattered clouds.12 mph61%30.00 "Hg10 mi
1:51 pm47 °FPartly sunny.10 mph69%29.98 "Hg10 mi
12:58 pm46 °FBroken clouds.9 mph77%29.97 "Hg10 mi
11:59 am42 °FLow clouds.8 mph82%29.99 "Hg8 mi
10:51 am39 °FFog.6 mph89%30.01 "Hg1 mi
10:01 am37 °FFog.No wind89%30.01 "Hg1 mi
8:51 am35 °FFog.No wind88%30.01 "Hg2 mi
8:00 am34 °FFog.No wind92%29.99 "Hg2 mi
6:51 am34 °FLight rain. Fog.No wind92%30.01 "Hg3 mi
6:02 am34 °FFog.No wind92%29.99 "Hg3 mi
5:51 am34 °FLight rain. Fog.3 mph92%30.00 "Hg2 mi
4:51 am34 °FLight snow. Fog.3 mph88%30.01 "Hg2 mi
3:51 am34 °FLight snow. Fog.5 mph88%30.02 "Hg1 mi
Weather by CustomWeather, © 2016

See weather overviewHow to use our weather pages